Location: Moscow Pond
(43.6842°N, 73.2366°W)
Time: 07:18:58
(UTC+00:00)

Cosmos 1864 Rocket - Pass Details

Date: 08 November 2025
Orbit: 951 x 995 km, 82.9° (Epoch: 06 December)

Event Time Altitude Azimuth Distance (km) Brightness Sun altitude
Rises 10:00:48 0° 349° (N) 3,683 7.3 -17.9°
Reaches altitude 10° 10:03:19 10° 347° (NNW) 2,738 6.7 -17.4°
Maximum altitude 10:09:33 68° 266° (W) 1,058 4.4 -16.3°
Drops below altitude 10° 10:15:47 10° 185° (S) 2,745 6.9 -15.2°
Sets 10:18:19 0° 183° (S) 3,693 7.6 -14.7°
